Weather History for Stanton, MN

Change the Weather History Date:

Friday, March 21, 2014

  Actual Average (KLVN) Record (KLVN)
Temperature  
Mean Temperature 36 °F -  
Max Temperature 44 °F 41 °F 64 °F (2012)
Min Temperature 28 °F 24 °F -12 °F (1965)
Degree Days  
Heating Degree Days 29    
Moisture  
Dew Point 28 °F    
Average Humidity 72    
Maximum Humidity 80    
Minimum Humidity 64    
Precipitation  
Precipitation 0.00 in - - ()
Sea Level Pressure  
Sea Level Pressure 29.84 in    
Wind  
Wind Speed 11 mph (SW)    
Max Wind Speed 24 mph    
Max Gust Speed 32 mph    
Visibility 10 miles    
Events      
Averages and records for this station are not official NWS values.
T = Trace of Precipitation, MM = Missing Value Source: NWS Daily Summary

Daily Weather History Graph

Daily Weather History Graph

Search for Another Location

Airport:

Trip Planner

Search our weather history database for the weather conditions in past years. The results will help you decide how hot, cold, wet, or windy it might be!

Date:

Astronomy

Mar. 21, 2014 Rise Set
Actual Time 7:13 AM CDT 7:25 PM CDT
Civil Twilight 6:44 AM CDT 7:54 PM CDT
Nautical Twilight 6:10 AM CDT 8:29 PM CDT
Astronomical Twilight 5:35 AM CDT 9:04 PM CDT
Moon No Moon Rise 9:55 AM CDT (3/21)
Length of Visible Light 13h 10m
Length of Day
12h 12m
Waning Gibbous, 75% of the Moon is Illuminated
Mar 21
Waning Gibbous
Mar 23
Last Quarter
Mar 30
New
Apr 7
First Quarter
Apr 15
Full

Hourly Weather History & Observations

Time (CDT) Temp. Windchill Dew Point Humidity Pressure Visibility Wind Dir Wind Speed Gust Speed Precip Events Conditions
12:12 AM 34.7 °F 27.5 °F 27.0 °F 73% 29.88 in 10.0 mi SE 9.2 mph - N/A   Clear
12:32 AM 34.3 °F 29.2 °F 26.6 °F 73% 29.88 in 10.0 mi SSE 5.8 mph - N/A   Clear
12:52 AM 34.2 °F 27.5 °F 26.6 °F 74% 29.87 in 10.0 mi SE 8.1 mph - N/A   Clear
1:12 AM 34.2 °F 27.5 °F 26.4 °F 73% 29.86 in 10.0 mi SE 8.1 mph - N/A   Clear
1:32 AM 34.0 °F 27.2 °F 26.1 °F 73% 29.85 in 10.0 mi SE 8.1 mph - N/A   Clear
1:52 AM 33.8 °F 28.6 °F 25.9 °F 73% 29.85 in 10.0 mi SSE 5.8 mph - N/A   Clear
2:12 AM 34.2 °F 28.2 °F 25.7 °F 71% 29.85 in 10.0 mi SE 6.9 mph - N/A   Clear
2:32 AM 33.8 °F 27.0 °F 25.7 °F 72% 29.83 in 10.0 mi SE 8.1 mph - N/A   Clear
2:52 AM 34.2 °F 26.8 °F 25.3 °F 70% 29.83 in 10.0 mi SSE 9.2 mph - N/A   Clear
3:12 AM 34.7 °F 26.9 °F 25.2 °F 68% 29.82 in 10.0 mi SE 10.4 mph - N/A   Clear
3:32 AM 34.2 °F 28.2 °F 25.0 °F 69% 29.82 in 10.0 mi SSE 6.9 mph - N/A   Clear
3:52 AM 34.0 °F 28.0 °F 25.0 °F 70% 29.82 in 10.0 mi SE 6.9 mph - N/A   Clear
4:12 AM 33.8 °F 26.4 °F 25.2 °F 71% 29.82 in 10.0 mi SE 9.2 mph - N/A   Clear
4:32 AM 33.3 °F 27.1 °F 24.8 °F 71% 29.83 in 10.0 mi South 6.9 mph - N/A   Clear
4:52 AM 33.1 °F 30.0 °F 25.2 °F 73% 29.83 in 10.0 mi SSE 3.5 mph - N/A   Mostly Cloudy
5:12 AM 33.3 °F 30.2 °F 25.2 °F 72% 29.82 in 10.0 mi SSE 3.5 mph - N/A   Overcast
5:32 AM 34.0 °F 29.8 °F 25.3 °F 71% 29.83 in 10.0 mi South 4.6 mph - N/A   Overcast
5:52 AM 34.0 °F 31.0 °F 25.5 °F 71% 29.82 in 10.0 mi SE 3.5 mph - N/A   Overcast
6:12 AM 35.4 °F 29.7 °F 25.3 °F 67% 29.82 in 10.0 mi South 6.9 mph - N/A   Overcast
6:32 AM 35.6 °F 30.7 °F 25.0 °F 65% 29.80 in 10.0 mi SSE 5.8 mph - N/A   Overcast
6:52 AM 35.6 °F 29.2 °F 25.2 °F 66% 29.77 in 10.0 mi SE 8.1 mph - N/A   Overcast
7:12 AM 35.8 °F 29.4 °F 25.5 °F 66% 29.76 in 10.0 mi SE 8.1 mph - N/A   Overcast
7:32 AM 35.8 °F 26.9 °F 25.9 °F 67% 29.75 in 10.0 mi South 13.8 mph - N/A   Overcast
7:52 AM 36.0 °F 28.0 °F 26.4 °F 68% 29.76 in 10.0 mi South 11.5 mph 17.3 mph N/A   Overcast
8:11 AM 35.6 °F 28.6 °F 27.7 °F 73% 29.76 in 10.0 mi South 9.2 mph 13.8 mph N/A   Overcast
8:32 AM 36.0 °F 29.0 °F 28.0 °F 73% 29.76 in 10.0 mi South 9.2 mph - N/A   Overcast
8:51 AM 36.5 °F 31.0 °F 28.9 °F 74% 29.76 in 10.0 mi South 6.9 mph - N/A   Overcast
9:12 AM 37.0 °F 30.4 °F 29.1 °F 73% 29.77 in 10.0 mi South 9.2 mph - N/A   Overcast
9:32 AM 36.5 °F 28.2 °F 29.8 °F 77% 29.78 in 10.0 mi SSW 12.7 mph - N/A   Overcast
9:51 AM 37.0 °F 31.0 °F 29.7 °F 75% 29.77 in 10.0 mi SSW 8.1 mph - N/A   Overcast
10:12 AM 37.0 °F 29.3 °F 30.0 °F 76% 29.75 in 10.0 mi South 11.5 mph - N/A   Overcast
10:32 AM 38.3 °F 30.5 °F 30.0 °F 72% 29.74 in 10.0 mi South 12.7 mph - N/A   Mostly Cloudy
10:51 AM 38.8 °F 31.2 °F 30.2 °F 71% 29.74 in 10.0 mi South 12.7 mph 17.3 mph N/A   Clear
11:12 AM 39.2 °F 33.0 °F 30.9 °F 72% 29.74 in 10.0 mi South 9.2 mph - N/A   Clear
11:32 AM 40.1 °F 36.1 °F 31.6 °F 72% 29.74 in 10.0 mi SSW 5.8 mph - N/A   Scattered Clouds
11:51 AM 40.5 °F 33.6 °F 32.0 °F 72% 29.74 in 10.0 mi SW 11.5 mph - N/A   Mostly Cloudy
12:12 PM 41.4 °F 34.3 °F 32.0 °F 69% 29.73 in 10.0 mi SW 12.7 mph - N/A   Mostly Cloudy
12:32 PM 43.0 °F 37.2 °F 32.2 °F 66% 29.73 in 10.0 mi WSW 10.4 mph - N/A   Clear
12:51 PM 43.9 °F 39.3 °F 32.4 °F 64% 29.73 in 10.0 mi WSW 8.1 mph - N/A   Scattered Clouds
1:12 PM 44.1 °F 37.4 °F 32.7 °F 64% 29.73 in 10.0 mi West 13.8 mph - N/A   Scattered Clouds
1:32 PM 43.5 °F 37.5 °F 33.4 °F 68% 29.73 in 10.0 mi West 11.5 mph - N/A   Mostly Cloudy
1:51 PM 42.8 °F 35.4 °F 34.2 °F 72% 29.73 in 10.0 mi West 15.0 mph - N/A   Overcast
2:12 PM 41.9 °F 33.1 °F 34.0 °F 73% 29.74 in 10.0 mi West 19.6 mph 26.5 mph N/A   Overcast
2:32 PM 40.6 °F 31.4 °F 33.1 °F 74% 29.75 in 10.0 mi West 19.6 mph 25.3 mph N/A   Overcast
2:51 PM 39.7 °F 30.0 °F 32.0 °F 74% 29.75 in 10.0 mi West 20.7 mph 32.2 mph N/A   Overcast
3:12 PM 38.5 °F 27.8 °F 32.4 °F 79% 29.76 in 10.0 mi West 23.0 mph 29.9 mph N/A   Overcast
3:32 PM 37.8 °F 28.0 °F 32.2 °F 80% 29.78 in 10.0 mi WNW 18.4 mph - N/A   Overcast
3:51 PM 37.8 °F 29.0 °F 32.0 °F 80% 29.78 in 10.0 mi WNW 15.0 mph 24.2 mph N/A   Overcast
4:12 PM 38.3 °F 27.8 °F 31.6 °F 77% 29.79 in 10.0 mi WNW 21.9 mph 27.6 mph N/A   Overcast
4:32 PM 37.9 °F 28.2 °F 30.7 °F 75% 29.80 in 10.0 mi WNW 18.4 mph 26.5 mph N/A   Overcast
4:52 PM 37.6 °F 28.1 °F 30.2 °F 75% 29.82 in 10.0 mi NW 17.3 mph 28.8 mph N/A   Overcast
5:12 PM 36.9 °F 25.9 °F 30.2 °F 77% 29.83 in 10.0 mi WNW 21.9 mph 31.1 mph N/A   Overcast
5:32 PM 36.7 °F 26.9 °F 29.8 °F 76% 29.85 in 10.0 mi NW 17.3 mph 26.5 mph N/A   Overcast
5:51 PM 36.7 °F 25.7 °F 29.1 °F 74% 29.86 in 10.0 mi NW 21.9 mph 27.6 mph N/A   Overcast
6:12 PM 36.5 °F 27.4 °F 29.1 °F 75% 29.88 in 10.0 mi NW 15.0 mph 23.0 mph N/A   Overcast
6:32 PM 36.5 °F 25.7 °F 28.0 °F 71% 29.90 in 10.0 mi NW 20.7 mph 29.9 mph N/A   Overcast
6:51 PM 36.5 °F 26.7 °F 27.7 °F 70% 29.90 in 10.0 mi NW 17.3 mph 24.2 mph N/A   Overcast
7:12 PM 36.0 °F 25.0 °F 27.9 °F 72% 29.92 in 10.0 mi NW 20.7 mph 27.6 mph N/A   Overcast
7:32 PM 35.6 °F 24.5 °F 27.7 °F 73% 29.93 in 10.0 mi NW 20.7 mph 32.2 mph N/A   Overcast
7:52 PM 35.1 °F 25.5 °F 27.7 °F 74% 29.95 in 10.0 mi NW 15.0 mph - N/A   Overcast
8:12 PM 34.7 °F 24.0 °F 27.5 °F 75% 29.96 in 10.0 mi NW 18.4 mph 24.2 mph N/A   Overcast
8:32 PM 34.2 °F 22.1 °F 27.0 °F 75% 29.98 in 10.0 mi NW 23.0 mph - N/A   Overcast
8:52 PM 34.0 °F 23.8 °F 27.0 °F 75% 29.99 in 10.0 mi NW 16.1 mph - N/A   Overcast
9:12 PM 33.4 °F 22.0 °F 26.2 °F 75% 30.00 in 10.0 mi NW 19.6 mph 26.5 mph N/A   Overcast
9:31 PM 33.1 °F 21.9 °F 26.2 °F 76% 30.01 in 10.0 mi NW 18.4 mph 23.0 mph N/A   Overcast
9:52 PM 32.5 °F 21.2 °F 25.3 °F 75% 30.03 in 10.0 mi NW 18.4 mph 25.3 mph N/A   Overcast
10:12 PM 32.2 °F 20.4 °F 25.5 °F 76% 30.05 in 10.0 mi NW 19.6 mph 26.5 mph N/A   Overcast
10:32 PM 31.1 °F 19.3 °F 23.5 °F 74% 30.06 in 10.0 mi NW 18.4 mph 26.5 mph N/A   Overcast
10:52 PM 30.6 °F 19.8 °F 23.4 °F 75% 30.07 in 10.0 mi NW 15.0 mph - N/A   Overcast
11:12 PM 29.7 °F 18.2 °F 22.3 °F 74% 30.08 in 10.0 mi NW 16.1 mph - N/A   Overcast
11:32 PM 28.8 °F 14.6 °F 21.7 °F 75% 30.10 in 10.0 mi NW 24.2 mph - N/A   Overcast
11:52 PM 28.0 °F 14.3 °F 20.5 °F 73% 30.11 in 10.0 mi WNW 21.9 mph 28.8 mph N/A   Overcast